"Pseudo-MPEC" for 2012 FP35

Created Sun Mar 25 21:06:57 2012 using Find_Orb

Astrometry:
     K12F35P  C2012 03 24.25855 11 34 40.72 -16 57 07.3          19.5 VrEF078703
     K12F35P  C2012 03 24.26676 11 34 39.50 -16 56 12.6          19.5 VrEF078703
     K12F35P  C2012 03 24.27500 11 34 38.24 -16 55 19.8         x20.0 VrEF078703
     K12F35P  C2012 03 24.28324 11 34 36.91 -16 54 21.5          19.3 VrEF078703
     K12F35P  C2012 03 24.29270 11 34 35.40 -16 53 16.1          19.5 VrEF078703
     K12F35P  C2012 03 24.29431 11 34 35.05 -16 53 05.0          19.4 VrEF078703
     K12F35P  C2012 03 24.36026 11 34 24.70 -16 44 54.9          19.1 VrEF078703
     K12F35P  C2012 03 24.36106 11 34 24.52 -16 44 48.4          19.3 VrEF078703
     K12F35P  C2012 03 24.36184 11 34 24.45 -16 44 42.1          19.0 VrEF078703
     K12F35P  C2012 03 24.36265 11 34 24.42 -16 44 35.7          19.5 VrEF078703
     K12F35P KC2012 03 24.97466 11 35 26.12 -14 54 35.5          18.2 RuEF078J95
     K12F35P KC2012 03 24.97923 11 35 25.57 -14 53 21.3          18.5 RuEF078J95
     K12F35P KC2012 03 24.98427 11 35 24.96 -14 51 58.7          17.9 RuEF078J95
     K12F35P KC2012 03 25.01539 11 35 12.92 -14 42 22.2          18.5 RtEF078204
     K12F35P KC2012 03 25.02607 11 35 11.43 -14 39 10.1                tEF078204
     K12F35P  C2012 03 25.26744 11 36 12.03 -13 08 23.2          17.9 RcEF078854
     K12F35P  C2012 03 25.26906 11 36 11.72 -13 07 38.7          18.1 RcEF078854
     K12F35P  C2012 03 25.27068 11 36 11.30 -13 06 54.0          18.4 RcEF078854
     K12F35P KC2012 03 25.31529 11 35 46.93 -12 46 24.7          18.1 RuEF078H36
     K12F35P KC2012 03 25.31870 11 35 46.29 -12 44 40.2          17.7 RuEF078H36
     K12F35P KC2012 03 25.32390 11 35 45.41 -12 41 57.5          17.6 RuEF078H36
     K12F35P KC2012 03 25.33013 11 35 44.35 -12 38 39.7          17.3 RuEF078H36
     K12F35P  C2012 03 25.51008 11 37 48.33 -10 41 09.6          17.4 RoEF078300
     K12F35P  C2012 03 25.51073 11 37 48.28 -10 40 38.4          17.6 RoEF078300
     K12F35P  C2012 03 25.51140 11 37 48.21 -10 40 06.3          17.8 RoEF078300
     K12F35P  C2012 03 25.51206 11 37 48.16 -10 39 35.4          18.0 RoEF078300
     K12F35P  C2012 03 25.51271 11 37 48.16 -10 39 04.0          17.8 RoEF078300
     K12F35P  C2012 03 25.51337 11 37 48.10 -10 38 33.2          17.8 RoEF078300
     K12F35P  C2012 03 25.51402 11 37 48.07 -10 38 01.9          17.5 RoEF078300
     K12F35P KC2012 03 25.84186911 41 22.75 -02 57 17.5                uEF078J95
     K12F35P KC2012 03 25.84303711 41 23.54 -02 54 23.7                uEF078J95
     K12F35P KC2012 03 25.84417311 41 24.31 -02 51 33.4          15.8 RuEF078J95
     K12F35P KC2012 03 25.84909 11 41 16.25 -02 38 24.3          16.2 RrEF078A17
     K12F35P KC2012 03 25.85039 11 41 16.99 -02 35 03.0          16.2 RrEF078A17
     K12F35P KC2012 03 25.85172 11 41 17.72 -02 31 36.0          15.8 RrEF078A17
     K12F35P KC2012 03 25.85895 11 41 21.73 -02 12 28.3          15.9 RrEF078A17
     K12F35P  C2012 03 25.87413 11 41 20.17 -01 29 58.0         x      oEF078246
     K12F35P  C2012 03 25.87450 11 41 20.39 -01 28 45.8                oEF078246
     K12F35P  C2012 03 25.87494 11 41 20.58 -01 27 29.8                oEF078246
     K12F35P  C2012 03 25.87568 11 41 20.95 -01 25 29.6         x      oEF078246

Station data:
(204) Schiaparelli Observatory (N45.8680 E8.7708).   Observer L. Buzzi.
    0.60-m f/4.64 Newtonian + CCD.
(246) Klet Observatory-KLENOT (N48.8634 E14.2881).  1.06-m KLENOT telescope.
(300) Bisei Spaceguard Center-BATTeRS (N34.67201 E133.54444).  0.25-m f/5.0
    reflector.
(703) Catalina Sky Survey (N32.41712 W110.73264).   Observers S. Larson, E.
    Beshore, E. Christensen, R. Hill, S. Howard, D. McLean.  Measurer E.
    Christensen.  0.68 m Schmidt + CCD.
(854) Sabino Canyon Observatory, Tucson (N32.29991 W110.82005).   Observer J.
    E. McGaha.  0.36-m f/10.0 Schmidt-Cassegrain + CCD.
(A17) Guidestar Observatory, Weinheim (N49.54544 E8.68152).
(H36) Sandlot Observatory, Scranton (N38.7977 W95.7064).   Observer G. Hug.
    0.56-m reflector + CCD.
(J95) Great Shefford (N51.47502 W1.44700).   Observer P. Birtwhistle.  0.30-m
    f/6.3 Schmidt-Cassegrain + CCD.

Orbital elements:
2012 FP35
   Perihelion 2012 May 18.471132 TT = 11:18:25 (JD 2456065.971132)
Epoch 2012 Mar 24.0 TT = JDT 2456010.5   Earth MOID: 0.0010   Ve: 0.0962
M 325.21993              (2000.0)        Ma: 0.0649
n   0.62699400     Peri.   79.34492     -0.09177487      0.99565355     
a   1.35194946     Node   185.46450     -0.96627697     -0.09289149     
e   0.4461429      Incl.    9.58389     -0.24059546     -0.00672110     
P   1.57/574.16d   H   28.0     U  7.3     q 0.74878668  Q 1.95511224
From 37 observations 2012 Mar. 24-25 (38.8 hr); mean residual 0".428.

Residuals in arcseconds:
120324 703  .60-  .09-    120325 204  .04-  .10+    120325 300  .07+  .40-    
120324 703  .12+  .32+    120325 854  .57+  .08+    120325 J95  .12+  .71+    
120324 703( .62+  2.2-)   120325 854  1.1+  .12+    120325 J95  .05-  .52+    
120324 703  .34+  .03-    120325 854  .12+  .20+    120325 J95  .18-  .70+    
120324 703  .46+  .14-    120325 H36  .16+  1.2+    120325 A17  .26-  1.1-    
120324 703  .84-  .30-    120325 H36  .40-  .10+    120325 A17  .02+  .58-    
120324 703  .04-  .16-    120325 H36  .11-  .07+    120325 A17  .10-  .26-    
120324 703  .93-  .05+    120325 H36  .31-  .29+    120325 A17  .09-  .95+    
120324 703  .28-  .21+    120325 300  .37+  .51-    120325 246( .32-  7.8-)   
120324 703  1.0+  .22+    120325 300  .19+  .11-    120325 246  .25+  .07+    
120324 J95  .19-  .06+    120325 300  .26-  .18+    120325 246  .15-  .61-    
120324 J95  .06-  .14-    120325 300  .42-  .32-    120325 246( .06-  9.7-)   
120324 J95  .10+  .34-    120325 300  .17+  .11+    
120325 204  .11-  .45-    120325 300  .10-  .61-    

Ephemerides (500):
Date (UT)  HH   RA              Dec         delta   r     elong  mag   rvel 
---- -- -- --  ------------   ------------  ------ ------ -----  --- ------ 
2012 03 26 02  11 48 04.954   +18 59 19.96  252138 0.9992 157.3 15.2 -10.87
2012 03 26 03  11 51 49.707   +27 36 47.15  215418 0.9989 149.3 15.1 -9.414
2012 03 26 04  11 58 03.527   +39 22 01.32  185401 0.9986 138.0 15.1 -7.087
2012 03 26 05  12 10 27.831   +54 39 59.46  165790 0.9983 123.0 15.3 -3.613
2012 03 26 06  12 46 45.884   +72 09 47.86  160467 0.9979 105.4 15.7  0.727
2012 03 26 07  17 53 44.591   +84 46 49.84  170779 0.9976  88.3 16.5  4.872
2012 03 26 08  22 23 52.669   +74 32 28.80  194241 0.9973  74.3 17.5  7.962
2012 03 26 09  22 57 21.738   +64 13 22.01  226792 0.9970  63.7 18.4  9.966
2012 03 26 10  23 09 11.175   +56 32 03.68  265090 0.9967  56.1 19.?  11.21
2012 03 26 11  23 15 11.967   +50 49 51.57  306982 0.9964  50.5 20.?  12.00
2012 03 26 12  23 18 50.234   +46 31 06.50  351176 0.9961  46.2 20.?  12.52
2012 03 26 13  23 21 16.476   +43 10 47.53  396898 0.9958  43.0 21.?  12.86
2012 03 26 14  23 23 01.297   +40 32 08.64  443672 0.9955  40.4 22.?  13.11
2012 03 26 15  23 24 20.114   +38 23 53.93  491195 0.9952  38.3 22.?  13.29
2012 03 26 16  23 25 21.539   +36 38 21.24  539267 0.9949  36.6 23.?  13.42
2012 03 26 17  23 26 10.758   +35 10 07.56  587751 0.9946  35.2 23.?  13.52
2012 03 26 18  23 26 51.082   +33 55 22.00  636552 0.9943  34.1 23.?  13.59
2012 03 26 19  23 27 24.723   +32 51 15.96  685602 0.9940  33.0 24.?  13.65
2012 03 26 20  23 27 53.216   +31 55 43.86  734849 0.9937  32.2 24.?  13.70
2012 03 26 21  23 28 17.658   +31 07 10.51  784257 0.9934  31.4 24.?  13.74